Savannah, GA

7:22 AM EST on February 20, 2018 (GMT -0500)
Savannah International

Weather History for KSAV - July, 2013

Change the Weather History Date:

Monday, July 8, 2013

  Actual Average Record
Temperature  
Mean Temperature 82 °F 82 °F  
Max Temperature 90 °F 92 °F 101 °F (1986)
Min Temperature 73 °F 73 °F 62 °F (1972)
Degree Days  
Heating Degree Days 0 0  
Month to date heating degree days 0 0  
Since 1 June heating degree days 0 0  
Since 1 July heating degree days 0 0  
Cooling Degree Days 17 17  
Month to date cooling degree days 130 136  
Year to date cooling degree days 956 985  
Since 1 June cooling degree days 598 582  
Growing Degree Days 32 (Base 50)    
Moisture  
Dew Point 72 °F    
Average Humidity 74    
Maximum Humidity 93    
Minimum Humidity 55    
Precipitation  
Precipitation 0.00 in 0.16 in 3.85 in (1909)
Month to date precipitation 1.83 1.34  
Year to date precipitation 29.65 23.55  
Sea Level Pressure  
Sea Level Pressure 30.17 in    
Wind  
Wind Speed 4 mph (South)    
Max Wind Speed 13 mph    
Max Gust Speed 18 mph    
Visibility 10 miles    
Events      
T = Trace of Precipitation, MM = Missing Value Source: NWS Daily Summary

Daily Weather History Graph

Daily Weather History Graph

Search for Another Location

Airport or City:

Trip Planner

Search our weather history database for the weather conditions in past years. The results will help you decide how hot, cold, wet, or windy it might be!

Date:

Astronomy

Jul. 08, 2013 Rise Set
Actual Time 6:25 AM EDT 8:34 PM EDT
Civil Twilight 5:57 AM EDT 9:02 PM EDT
Nautical Twilight 5:23 AM EDT 9:36 PM EDT
Astronomical Twilight 4:46 AM EDT 10:12 PM EDT
Moon 6:48 AM EDT (7/8) 8:42 PM EDT (7/8)
Length of Visible Light 15h 04m
Length of Day
14h 08m
New Moon, 0% of the Moon is Illuminated
Jul 8
New Moon
Jul 15
First Quarter
Jul 22
Full
Jul 29
Last Quarter
Aug 6
New

Hourly Weather History & Observations

Time (EDT) Temp. Heat Index Dew Point Humidity Pressure Visibility Wind Dir Wind Speed Gust Speed Precip Events Conditions
12:53 AM 75.9 °F - 72.0 °F 87% 30.17 in 10.0 mi Calm Calm - N/A   Clear
1:53 AM 73.9 °F - 72.0 °F 93% 30.17 in 10.0 mi Calm Calm - N/A   Clear
2:53 AM 73.9 °F - 72.0 °F 93% 30.17 in 10.0 mi Calm Calm - N/A   Clear
3:53 AM 73.0 °F - 71.1 °F 93% 30.16 in 10.0 mi Calm Calm - N/A   Clear
4:53 AM 73.9 °F - 71.1 °F 91% 30.16 in 10.0 mi Calm Calm - N/A   Clear
5:53 AM 73.0 °F - 71.1 °F 93% 30.17 in 10.0 mi Calm Calm - N/A   Mostly Cloudy
6:53 AM 73.0 °F - 71.1 °F 93% 30.19 in 9.0 mi Calm Calm - N/A   Mostly Cloudy
7:53 AM 77.0 °F - 73.9 °F 90% 30.19 in 9.0 mi Calm Calm - N/A   Mostly Cloudy
8:53 AM 80.1 °F 84.5 °F 73.9 °F 81% 30.20 in 10.0 mi South 3.5 mph - N/A   Mostly Cloudy
9:53 AM 82.9 °F 88.8 °F 73.0 °F 72% 30.20 in 10.0 mi SSW 5.8 mph - N/A   Mostly Cloudy
10:53 AM 84.9 °F 90.1 °F 71.1 °F 63% 30.20 in 10.0 mi SW 6.9 mph - N/A   Mostly Cloudy
11:53 AM 87.1 °F 92.8 °F 71.1 °F 59% 30.19 in 10.0 mi Variable 3.5 mph - N/A   Mostly Cloudy
12:53 PM 87.1 °F 92.8 °F 71.1 °F 59% 30.19 in 10.0 mi SSW 5.8 mph - N/A   Overcast
1:53 PM 89.1 °F 95.0 °F 71.1 °F 55% 30.18 in 10.0 mi ESE 6.9 mph - N/A   Overcast
2:53 PM 88.0 °F 93.8 °F 71.1 °F 57% 30.16 in 10.0 mi SE 6.9 mph - N/A   Overcast
3:53 PM 88.0 °F 95.6 °F 73.0 °F 61% 30.15 in 10.0 mi South 10.4 mph - N/A   Mostly Cloudy
4:53 PM 88.0 °F 94.7 °F 72.0 °F 59% 30.14 in 10.0 mi SSE 11.5 mph 18.4 mph N/A   Mostly Cloudy
5:53 PM 87.1 °F 92.0 °F 70.0 °F 57% 30.13 in 10.0 mi SSE 12.7 mph - N/A   Mostly Cloudy
6:53 PM 84.0 °F 88.4 °F 70.0 °F 63% 30.14 in 10.0 mi SSE 8.1 mph - N/A   Mostly Cloudy
7:53 PM 82.0 °F 86.3 °F 71.1 °F 69% 30.13 in 10.0 mi South 8.1 mph - N/A   Mostly Cloudy
8:53 PM 80.1 °F 83.8 °F 72.0 °F 76% 30.15 in 10.0 mi South 9.2 mph - N/A   Mostly Cloudy
9:53 PM 78.1 °F - 72.0 °F 81% 30.19 in 10.0 mi South 3.5 mph - N/A   Mostly Cloudy
10:53 PM 77.0 °F - 73.0 °F 88% 30.19 in 10.0 mi Calm Calm - N/A   Mostly Cloudy
11:53 PM 77.0 °F - 72.0 °F 84% 30.19 in 10.0 mi South 3.5 mph - N/A   Mostly Cloudy